Flag for Ukraine Weather past 2 weeks in Kyiv, Ukraine

Now
79 °F

Passing clouds.


Feels Like: 79 °F
Forecast: 57 / 82 °F
Wind: 13 mph from Northeast

Location: Kyiv

Current Time: Jul 3, 2015 at 3:23:49 PM

Latest Report: Jul 3, 2015 at 3:00 PM


Visibility: N/A

Pressure: 30.30 "Hg

Humidity: 45%

Dew point: 55 °F

Location of KyivLocation

Historic Weather in Kyiv — Graph

°F

Kyiv temperature yesterday

Maximum temperature yesterday: 75 °F (at 2:30 PM)
Minimum temperature yesterday: 59 °F (at 4:30 AM)
Average temperature yesterday: 66 °F

Past Weeks' High & Low Weather Summary

 TemperatureHumidityPressure
High82 °F (Jun 24, 4:30 PM)100% (Jun 20, 5:00 AM)30.30 "Hg (Jun 20, 5:00 AM)
Low48 °F (Jun 23, 4:00 AM)27% (Jun 30, 1:30 PM)29.71 "Hg (Jun 27, 4:30 AM)
Average66 °F62%29.93 "Hg
* Reported Jun 18 2:00 PM — Jul 3 2:00 PM, Kyiv, Weather by CustomWeather, © 2015

Note: Actual official high and low records may vary slightly from our data, if they occured in-between our weather recording intervals... More about our weather records

Advertising

Kyiv weather history for previous 24 hours

 ConditionsComfort  
Time TempWeatherWind HumidityBarometerVisibility
2:00 PM
Fri, Jul 3
79 °FPartly sunny.13 mph48%30.30 "HgN/A
1:30 PM79 °FPartly sunny.15 mph48%30.30 "HgN/A
1:00 PM77 °FPartly sunny.13 mph51%30.30 "HgN/A
12:30 PM79 °FPartly sunny.13 mph51%30.30 "HgN/A
12:00 PM77 °FPartly sunny.13 mph54%30.30 "HgN/A
11:30 AM79 °FPassing clouds.13 mph51%30.30 "HgN/A
11:00 AM75 °FPassing clouds.10 mph57%30.30 "HgN/A
10:30 AM75 °FSunny.13 mph57%30.30 "Hg10 mi
10:00 AM73 °FPassing clouds.10 mph61%30.30 "HgN/A
9:30 AM72 °FPassing clouds.8 mph65%30.30 "HgN/A
9:00 AM72 °FSunny.10 mph65%30.27 "Hg10 mi
8:30 AM70 °FPassing clouds.8 mph69%30.27 "HgN/A
8:00 AM68 °FSunny.10 mph69%30.27 "Hg10 mi
7:30 AM66 °FSunny.10 mph73%30.27 "Hg10 mi
7:00 AM66 °FSunny.10 mph73%30.27 "Hg10 mi
6:30 AM66 °FSunny.8 mph73%30.27 "Hg10 mi
5:30 AM63 °FClear.8 mph83%30.24 "Hg10 mi
5:00 AM63 °FClear.8 mph88%30.24 "Hg10 mi
4:30 AM63 °FClear.8 mph88%30.24 "Hg10 mi
4:00 AM63 °FClear.6 mph88%30.24 "Hg10 mi
3:30 AM64 °FClear.8 mph78%30.24 "Hg10 mi
3:00 AM64 °FClear.8 mph78%30.24 "Hg10 mi
2:30 AM63 °FClear.6 mph83%30.24 "Hg10 mi
2:00 AM57 °FClear.1 mph94%30.21 "Hg10 mi
1:30 AM57 °FClear.No wind94%30.24 "Hg10 mi
1:00 AM59 °FClear.No wind94%30.24 "Hg10 mi
12:30 AM59 °FClear.No wind94%30.24 "Hg10 mi
12:00 AM61 °FClear.No wind88%30.24 "Hg10 mi
11:30 PM
Thu, Jul 2
61 °FClear.No wind83%30.24 "Hg10 mi
11:00 PM61 °FClear.No wind83%30.21 "Hg10 mi
10:30 PM64 °FClear.3 mph73%30.21 "Hg10 mi
10:00 PM66 °FSunny.6 mph68%30.21 "Hg10 mi
9:30 PM68 °FSunny.6 mph64%30.21 "Hg10 mi
9:00 PM70 °FSunny.8 mph60%30.18 "Hg10 mi
8:30 PM72 °FSunny.8 mph57%30.18 "Hg10 mi
8:00 PM72 °FSunny.6 mph57%30.18 "Hg10 mi
7:30 PM72 °FSunny.8 mph53%30.18 "Hg10 mi
7:00 PM72 °FSunny.10 mph53%30.15 "Hg10 mi
6:30 PM72 °FPassing clouds.8 mph57%30.15 "HgN/A
6:00 PM72 °FSunny.10 mph57%30.15 "Hg10 mi
5:30 PM72 °FPassing clouds.10 mph57%30.15 "HgN/A
5:00 PM72 °FPartly sunny.13 mph61%30.15 "HgN/A
4:30 PM73 °FPassing clouds.10 mph50%30.15 "HgN/A
4:00 PM72 °FPartly sunny.10 mph61%30.15 "HgN/A
3:30 PM70 °FSprinkles. Broken clouds.13 mph64%30.15 "HgN/A
3:00 PM73 °FThunderstorms. Broken clouds.13 mph53%30.15 "HgN/A
Weather by CustomWeather, © 2015

See weather overviewHow to use our weather pages